STARLINK-1882, 46784

Orbit data source: Space-Track

STARLINK-1882, 46784 is a payload satellite owned by SpaceX/Seattle (US) in LEO that was launched on Sat, 24 Oct 2020 UTC via an FALCON 9 launch vehicle from the Air Force Eastern Test Range (AFETR). Payload-class satellites include a variety of spacecraft equipped with specific instruments for various scientific and technological missions. These include communications satellites like Starlink; space stations such as the ISS; scientific satellites like the Hubble; Earth observation satellites from companies like Planet Labs, Umbra, and HawkEye 360; GPS; miniature CubeSats for education and research; and military/defense satellites.

Loading next visibility...
Identifier
46784, 2020-074AX
Orbit
LEO
Country
Flag of USUS
Related business
Manufacturer
SpaceX/Seattle
Mission
Operational Commercial Communications
Bus & Motor
STARLINK, Unknown motor
Mass
260 kg wet, ~248 kg dry
Launch date (UTC)
2020-10-24 (5 years ago)
Launch vehicle
FALCON 9
Launch site
Air Force Eastern Test Range (AFETR)
Object type
Payload
Rocket body
Debris
Shape & HBR
Box + 1 Pan, 10.1 m
Radar Cross Section
13.562 m², Large (>1 m²)

Expand to show TLE details & history
Last TLE update: 2 days ago

TLE from 2 days ago
0 STARLINK-1882
1 46784U 20074AX  25302.95954099  .00068609  00000-0  24648-2 0  9999
2 46784  53.0581 175.9364 0002192 115.3263 244.7962 15.28043393277146
Epoch: 2025-10-29T23:01Z
TLE epoch observation values (Epoch: 2025-10-29T23:01:44.341Z)
Latitude
-0.00008°
Longitude
151.97639°
Altitude
483.19 km
Speed
7.625 km/s
True Right ascension
11h 43m 44s
True Declination
0° 00' 00"
Sunlit
Object was in daylight at epoch
Visualization orbit readout
Latitude
Unknown
Longitude
Unknown
Altitude
Unknown
Speed
Unknown
Apparent Right ascension
Unknown
Apparent Declination
Unknown
Sunlit
N/A
Visualization observer readout
Local Sidereal Time
12:48:06
Azimuth
Unknown
Elevation
Unknown
Doppler factor
Unknown
Orbital elements
Apogee altitude
483.438 km
Perigee altitude
480.431 km
Semi-major axis
6,860.072 km
Eccentricity
0.00022
Inclination
53.0581°
RAAN
175.9364°
Arg. of periapsis
115.3263°
True anomaly
244.77348°
Mean anomaly
244.7962°
Eccentric anomaly
244.78484°
Mean motion
3.81988 °/min
Orbital period
94.24 mins
BSTAR
0.0024648
Loading maneuver chart data...
Computing Atmospheric mass density...

Documentation

Showing up to 5 results
|